Regional Weather Roundup
Issued by NWS

Home | Current Version | Previous Version | Text Only | Print | Product List | Glossary Off
Versions: 1 2 3 4 5 6 7 8 9 10 11 12 13 14 15 16 17 18 19 20 21 22 23 24 25 26 27 28 29 30 31 32 33 34 35 36 37 38 39 40 41 42 43 44 45 46 47 48 49 50

000
ASUS43 KTOP 221008
RWRKS

WEATHER ROUNDUP FOR KANSAS
NATIONAL WEATHER SERVICE GOODLAND KS
500 AM CDT MON MAY 22 2017

NOTE:  "FAIR" INDICATES FEW OR NO CLOUDS BELOW 12,000 FEET WITH NO
SIGNIFICANT WEATHER AND/OR OBSTRUCTIONS TO VISIBILITY.

KSZ001>006-013>018-027>032-041>047-221100-
NORTHWEST KANSAS

CITY           SKY/WX    TMP DP  RH WIND       PRES   REMARKS
GOODLAND       CLOUDY    50  49  96 W5        30.11F
HAYS           CLOUDY    54  49  83 NW3       30.09F
HILL CITY      LGT RAIN  56  54  93 NW15      30.09F FOG
RUSSELL        PTCLDY    53  49  86 NW6       30.09S
$$

KSZ061>065-074>080-084>089-221100-
SOUTHWEST KANSAS

CITY           SKY/WX    TMP DP  RH WIND       PRES   REMARKS
DODGE CITY     CLOUDY    53  51  93 S7        30.09F
ELKHART          N/A     51  40  66 S14         N/A
GARDEN CITY    CLOUDY    50  49  96 N6        30.10F
LIBERAL        LGT RAIN  56  50  80 SW18G25   30.12S
PRATT          CLOUDY    55  49  82 SW9       30.10F
$$

KSZ066>073-081>083-090>101-221100-
SOUTHEAST KANSAS

CITY           SKY/WX    TMP DP  RH WIND       PRES   REMARKS
CHANUTE        CLOUDY    57  53  86 SW3       30.11S
COFFEYVILLE    PTCLDY    55  55 100 S3        30.11F
HUTCHINSON     CLOUDY    58  52  80 SW6       30.09S
MEDICINE LODGE   N/A     58  51  78 S3        30.09F
NEWTON         CLOUDY    59  51  75 SW10      30.10S
PARSONS        PTCLDY    56  54  93 CALM      30.12F
WICHITA INTL   CLOUDY    57  53  86 S3        30.09F
WICHITA JABRA  MOCLDY    58  52  80 S9        30.09F
WICHITA MCCONL CLOUDY    58  51  79 SW8       30.09F
WINFIELD       PTCLDY    56  52  86 S3        30.11F
$$

KSZ007>012-019>026-033>040-048>060-102>105-221100-
NORTHEAST KANSAS

CITY           SKY/WX    TMP DP  RH WIND       PRES   REMARKS
CONCORDIA      MOCLDY    55  53  93 SW6       30.07F
EMPORIA        PTCLDY    54  52  93 S9        30.09S
LAWRENCE       CLEAR     51  49  92 CALM      30.07F
MANHATTAN      PTCLDY    53  51  93 CALM      30.07S
MARYSVILLE     CLOUDY    55  52  88 SW6       30.07F
OLATHE IND     CLEAR     50  47  89 S5        30.08F
OLATHE EXE     CLEAR     51  48  89 S5        30.08F
SALINA         CLOUDY    56  51  84 CALM      30.08S
TOPEKA BILLARD CLOUDY    55  50  83 SW3       30.07S
TOPEKA FORBES  PTCLDY    52  49  89 CALM      30.07S
$$



USA.gov is the U.S. government's official web portal to all federal, state and local government web resources and services.